Weather History for Shelbyville, IN

Change the Weather History Date:

Sunday, November 24, 2013

  Actual Average Record
Temperature  
Mean Temperature 23 °F 40 °F  
Max Temperature 30 °F 49 °F 64 °F (2001)
Min Temperature 15 °F 31 °F 14 °F (2005)
Degree Days  
Heating Degree Days 42 25  
Month to date heating degree days 512 480  
Since 1 July heating degree days 857 915  
Cooling Degree Days 0 0  
Month to date cooling degree days 0 0  
Year to date cooling degree days 1179 913  
Moisture  
Dew Point 11 °F    
Average Humidity 58    
Maximum Humidity 80    
Minimum Humidity 36    
Precipitation  
Precipitation 0.00 in 0.12 in 0.99 in (2010)
Month to date precipitation 1.52 2.99  
Year to date precipitation 29.24 39.55  
Sea Level Pressure  
Sea Level Pressure 30.63 in    
Wind  
Wind Speed 7 mph (WNW)    
Max Wind Speed 17 mph    
Max Gust Speed 23 mph    
Visibility 10 miles    
Events      
T = Trace of Precipitation, MM = Missing Value Source: NWS Daily Summary

Daily Weather History Graph

Daily Weather History Graph

Search for Another Location

Airport:

Trip Planner

Search our weather history database for the weather conditions in past years. The results will help you decide how hot, cold, wet, or windy it might be!

Date:

Astronomy

Nov. 24, 2013 Rise Set
Actual Time 7:37 AM EST 5:22 PM EST
Civil Twilight 7:08 AM EST 5:51 PM EST
Nautical Twilight 6:35 AM EST 6:24 PM EST
Astronomical Twilight 6:03 AM EST 6:56 PM EST
Moon 11:46 PM EST (11/24) 12:25 PM EST (11/24)
Length of Visible Light 10h 43m
Length of Day
9h 44m
Waning Gibbous, 61% of the Moon is Illuminated
Nov 24
Waning Gibbous
Nov 25
Last Quarter
Dec 2
New
Dec 9
First Quarter
Dec 17
Full

Hourly Weather History & Observations

Time (EST) Temp. Windchill Dew Point Humidity Pressure Visibility Wind Dir Wind Speed Gust Speed Precip Events Conditions
12:53 AM 23.0 °F 9.2 °F 12.9 °F 65% 30.63 in 10.0 mi NW 17.3 mph 23.0 mph N/A   Overcast
1:53 AM 21.9 °F 11.0 °F 12.0 °F 66% 30.62 in 10.0 mi NW 10.4 mph - N/A   Overcast
2:53 AM 21.9 °F 9.8 °F 10.9 °F 63% 30.63 in 10.0 mi NW 12.7 mph - N/A   Overcast
3:53 AM 21.0 °F 8.6 °F 10.9 °F 65% 30.64 in 10.0 mi NW 12.7 mph - N/A   Overcast
4:53 AM 19.0 °F 10.0 °F 10.0 °F 68% 30.64 in 10.0 mi North 6.9 mph - N/A   Partly Cloudy
5:53 AM 16.0 °F 7.4 °F 10.0 °F 77% 30.65 in 10.0 mi NW 5.8 mph - N/A   Clear
6:53 AM 16.0 °F 8.8 °F 10.0 °F 77% 30.65 in 10.0 mi NW 4.6 mph - N/A   Clear
7:53 AM 17.1 °F 8.7 °F 10.0 °F 74% 30.69 in 10.0 mi WNW 5.8 mph - N/A   Clear
8:53 AM 19.0 °F 9.0 °F 10.9 °F 71% 30.72 in 10.0 mi NW 8.1 mph - N/A   Clear
9:53 AM 21.9 °F 13.4 °F 12.0 °F 66% 30.73 in 10.0 mi NNW 6.9 mph - N/A   Partly Cloudy
10:53 AM 25.0 °F 17.1 °F 12.9 °F 60% 30.73 in 10.0 mi NW 6.9 mph - N/A   Clear
11:53 AM 25.0 °F 17.1 °F 10.9 °F 55% 30.71 in 10.0 mi NW 6.9 mph - N/A   Mostly Cloudy
12:53 PM 27.0 °F 20.5 °F 10.9 °F 51% 30.67 in 10.0 mi Variable 5.8 mph - N/A   Partly Cloudy
1:53 PM 27.0 °F 20.5 °F 7.0 °F 43% 30.64 in 10.0 mi NW 5.8 mph - N/A   Partly Cloudy
2:53 PM 28.9 °F 21.9 °F 8.1 °F 41% 30.61 in 10.0 mi NW 6.9 mph - N/A   Clear
3:53 PM 30.0 °F 26.5 °F 7.0 °F 38% 30.61 in 10.0 mi Variable 3.5 mph - N/A   Clear
4:53 PM 27.0 °F 23.0 °F 7.0 °F 43% 30.59 in 10.0 mi West 3.5 mph - N/A   Clear
5:53 PM 25.0 °F 20.7 °F 10.0 °F 53% 30.59 in 10.0 mi West 3.5 mph - N/A   Clear
6:53 PM 25.0 °F - 12.0 °F 58% 30.59 in 10.0 mi Calm Calm - N/A   Clear
7:53 PM 23.0 °F 15.8 °F 10.9 °F 60% 30.59 in 10.0 mi SSW 5.8 mph - N/A   Clear
8:53 PM 23.0 °F 17.0 °F 10.9 °F 60% 30.58 in 10.0 mi South 4.6 mph - N/A   Clear
9:53 PM 23.0 °F 17.0 °F 14.0 °F 68% 30.55 in 10.0 mi SSE 4.6 mph - N/A   Clear
10:53 PM 21.0 °F 13.4 °F 12.0 °F 68% 30.54 in 10.0 mi South 5.8 mph - N/A   Clear
11:53 PM 21.0 °F 12.4 °F 12.0 °F 68% 30.55 in 10.0 mi South 6.9 mph - N/A   Clear